Merci d'essayer une autre recherche
| Libellé | Marché | Devise | ||
|---|---|---|---|---|
| DVN | NYSE | USD | Temps réel | |
| DVN | Mexico | MXN | Différé | |
| 1DY6 | Milan | EUR | Temps réel | |
| DVN | TradeGate | EUR | Différé | |
| D1VN34 | B3 | BRL | Différé | |
| DVN | Vienne | EUR | Temps réel |
| Début | Utilisateur | Call | Ouverture | Date de fin | Var. % |
|---|---|---|---|---|---|
| 04/05/2026 | Jared Stein | 50.40 | +0.32% | ||
| 30/04/2026 | Dietmar Knoch | 51.23 | -1.31% | ||
| 30/04/2026 | Nataly Silvana... | 50.78 | -0.43% | ||
| 29/04/2026 | גיא שרעבי | 50.06 | +1.00% | ||
| 28/04/2026 | Kevin Camacho | 49.22 | +2.72% | ||
| 28/04/2026 | เคลิ้ม ชาแนล | 49.16 | +2.85% | ||
| 27/04/2026 | Константин Ицковский | 47.90 | 27/04/2026 @ 47.91 | +0.02% | |
| 23/04/2026 | George Arslanoglou | 48.32 | 27/04/2026 @ 47.91 | -0.85% | |
| 22/04/2026 | zhuge frishee | 46.73 | 27/04/2026 @ 47.91 | +2.53% | |
| 22/04/2026 | Вячеслав Кравчук | 46.64 | +8.40% | ||
| 22/04/2026 | jean charles marras | 46.56 | 27/04/2026 @ 47.91 | +2.90% | |
| 21/04/2026 | Kilian Schliebs | 45.46 | +11.22% | ||
| 21/04/2026 | Andre Gan | 45.08 | 27/04/2026 @ 47.91 | -6.28% | |
| 21/04/2026 | Anna Żabińska | 44.77 | 27/04/2026 @ 47.91 | +7.01% | |
| 21/04/2026 | Ryan Freeman | 44.74 | 27/04/2026 @ 47.91 | +7.09% | |
| 21/04/2026 | Shravan Shetty | 45.10 | 27/04/2026 @ 47.91 | -6.23% | |
| 21/04/2026 | Joyce Marrero | 45.17 | 27/04/2026 @ 47.91 | +6.07% | |
| 17/04/2026 | Sven Schack | 43.33 | +16.69% | ||
| 17/04/2026 | Enrique CB | 42.57 | 20/04/2026 @ 45.12 | +5.99% | |
| 17/04/2026 | Shravan Shetty | 42.53 | 20/04/2026 @ 45.12 | +6.09% | |
| 16/04/2026 | philip gerry | 45.85 | +10.27% | ||
| 16/04/2026 | Paweł Włodarczyk | 45.30 | 20/04/2026 @ 45.12 | -0.40% | |
| 15/04/2026 | Petar Andreev | 45.35 | 20/04/2026 @ 45.12 | -0.51% | |
| 14/04/2026 | 45.19 | +11.88% | |||
| 14/04/2026 | Stephen Mumford | 45.21 | 20/04/2026 @ 45.12 | -0.20% | |
| 14/04/2026 | Ghassan Googlmail | 45.22 | +11.81% | ||
| 14/04/2026 | Alfons Untermarzoner | 47.79 | 20/04/2026 @ 45.12 | -5.59% | |
| 13/04/2026 | Massimo Anchisi | 47.91 | 20/04/2026 @ 45.12 | -5.82% | |
| 13/04/2026 | Torsten Schmidt | 47.70 | +6.00% | ||
| 13/04/2026 | Κωνσταντίνος Ράπτης | 47.00 | 13/04/2026 @ 47.89 | +1.89% | |
| 13/04/2026 | Szymon Kosma | 47.80 | 13/04/2026 @ 47.89 | +0.19% | |
| 09/04/2026 | renzo rozzi | 48.92 | 01/05/2026 @ 50.57 | +3.37% | |
| 08/04/2026 | tomek catawiki | 47.37 | 01/05/2026 @ 50.57 | +6.76% | |
| 08/04/2026 | Dawid Antos | 47.26 | 01/05/2026 @ 50.57 | +7.00% | |
| 08/04/2026 | Jędrek Zaciura | 47.20 | 01/05/2026 @ 50.57 | +7.14% | |
| 08/04/2026 | Toni Romero Bruguera | 46.40 | 13/04/2026 @ 47.89 | +3.21% | |
| 07/04/2026 | jean charles marras | 49.99 | 13/04/2026 @ 47.89 | -4.20% | |
| 07/04/2026 | caleb reyes sanchez | 49.68 | 13/04/2026 @ 47.89 | -3.60% | |
| 06/04/2026 | Timo hagström | 49.38 | 13/04/2026 @ 47.89 | -3.02% | |
| 02/04/2026 | Remember Really | 49.25 | 24/04/2026 @ 47.93 | -2.68% | |
| 02/04/2026 | Shravan Shetty | 49.10 | 06/04/2026 @ 49.38 | -0.57% | |
| 02/04/2026 | 49.41 | 06/04/2026 @ 49.38 | -0.06% | ||
| 02/04/2026 | Cyrille Libert | 49.99 | 06/04/2026 @ 49.38 | -1.22% | |
| 01/04/2026 | Antonio morgillo | 48.40 | 24/04/2026 @ 47.93 | +0.97% | |
| 01/04/2026 | Monica Salinas | 48.52 | 24/04/2026 @ 47.93 | -1.22% | |
| 01/04/2026 | Angelo Frongillo | 48.86 | 24/04/2026 @ 47.93 | -1.90% | |
| 31/03/2026 | Dietmar Knoch | 51.52 | 06/04/2026 @ 49.38 | -4.15% | |
| 31/03/2026 | Alfons Untermarzoner | 51.00 | 06/04/2026 @ 49.38 | +3.18% | |
| 30/03/2026 | annemie stevens | 51.65 | 06/04/2026 @ 49.38 | -4.39% | |
| 30/03/2026 | Bill Rader | 51.65 | 24/04/2026 @ 47.93 | -7.20% |
Voulez-vous vraiment bloquer %USER_NAME% ?
Si vous continuez, vous et %USER_NAME% ne verrez plus vos publications Investing.com mutuelles.
%USER_NAME% a bien été ajouté à votre Liste d’utilisateurs bloqués
Vous venez de débloquer cette personne et devrez attendre 48 heures avant de la bloquer de nouveau.
Je souhaite signaler ce commentaire comme:
Merci
Le commentaire signalé sera révisé par nos modérateurs